Regional Weather Roundup
Issued by NWS

Home | Current Version | Previous Version | Text Only | Print | Product List | Glossary On
Versions: 1 2 3 4 5 6 7 8 9 10 11 12 13 14 15 16 17 18 19 20 21 22 23 24 25 26 27 28 29 30 31 32 33 34 35 36 37 38 39 40 41 42 43 44 45 46 47 48 49 50
000
ASUS42 KFFC 062303
RWRGA
WEATHER ROUNDUP FOR GEORGIA
NATIONAL WEATHER SERVICE PEACHTREE CITY GA
700 PM EDT WED MAY 06 2015

NOTE: "FAIR" INDICATES FEW OR NO CLOUDS BELOW 12,000 FEET WITH NO
SIGNIFICANT WEATHER AND/OR OBSTRUCTIONS TO VISIBILITY.

* = USE WITH CAUTION. THE STATIONS MARKED WITH AN ASTERISK MAY NOT
REPORT WEATHER SUCH AS PRECIPITATION, FOG, OR THUNDER AND ARE NOT
QUALITY CONTROLLED BY NWS.

THE REMARK "TC" DENOTES TEMPERATURE READING IN DEGREES CELSIUS.

GAZ001>058-070000-
NORTH GEORGIA

CITY           SKY/WX    TMP DP  RH WIND       PRES   REMARKS
ATLANTA        MOSUNNY   79  51  37 E8        30.11F
ATHENS         SUNNY     79  53  40 SE6       30.11F
CHAMBLEE       SUNNY     79  50  36 VRB5      30.11F
PEACHTREE CITY MOSUNNY   80  52  37 E7        30.11F
ROME           SUNNY     81  51  35 SE6       30.09S
WEST ATLANTA   SUNNY     81  49  32 VRB5      30.10F
GAINESVILLE    SUNNY     78  50  37 SE8       30.14F
CARTERSVILLE   SUNNY     81  48  31 VRB5      30.10F


CITY           SKY/WX    TMP DP  RH WIND       PRES   REMARKS
DALTON*        MOSUNNY   81  52  36 CALM      30.10S
LAWRENCEVILLE* MOSUNNY   81  50  34 E9        30.10F
MARIETTA       MOSUNNY   79  51  37 VRB3      30.11F
KENNESAW*      SUNNY     81  52  36 SE8       30.12S
BLAIRSVILLE*     N/A     77  32  19 S7        30.15S
$$

GAZ059>098-102>109-070000-
CENTRAL GEORGIA

CITY           SKY/WX    TMP DP  RH WIND       PRES   REMARKS
AUGUSTA-BUSH   PTSUNNY   77  55  46 SE5       30.09F
AUGUSTA-DANIEL PTSUNNY   81  50  33 E7        30.10F
COLUMBUS       SUNNY     81  49  32 NE5       30.08S
MACON          SUNNY     79  55  43 E6        30.08F
ROBINS AFB     SUNNY     81  49  33 E5        30.08S


CITY           SKY/WX    TMP DP  RH WIND       PRES   REMARKS
LAGRANGE*      SUNNY     83  56  40 E3        30.10S
SYLVANIA*      CLOUDY    76  59  55 CALM      30.10F
MILLEDGEVILLE* SUNNY     81  55  41 E3        30.09F
$$

GAZ099>101-110>166-070000-
SOUTH GEORGIA

CITY           SKY/WX    TMP DP  RH WIND       PRES   REMARKS
SAVANNAH       PTSUNNY   74  58  57 SE10      30.08F
VALDOSTA       SUNNY     79  63  57 E7        30.05R
ALMA           SUNNY     77  59  53 E6        30.08S
ST SIMONS      PTSUNNY   73  63  70 NE13G21   30.07F
FT STEWART     PTSUNNY   74  62  66 E2        30.06F
ALBANY         SUNNY     83  50  31 NE7       30.08F
HUNTER AFB     PTSUNNY   73  62  68 E13       30.06F
MOODY AFB      MOSUNNY   80  61  52 NE8       30.04S
BRUNSWICK      PTSUNNY   73  61  64 NE15G21   30.08F


CITY           SKY/WX    TMP DP  RH WIND       PRES   REMARKS
BAINBRIDGE*    SUNNY     86  59  39 NE8       30.05S
MOULTRIE*      SUNNY     82  46  28 NE7       30.06F
VIDALIA*       CLOUDY    79  59  50 E12       30.09S
WAYCROSS*      PTSUNNY   80  64  59 E6        30.07F
DOUGLAS*       SUNNY     81  59  47 E8        30.08F
$$


USA.gov is the U.S. government's official web portal to all federal, state and local government web resources and services.